Weather Roundup
Issued by NWS

Home | Current Version | Previous Version | Graphics & Text | Print | Product List | Glossary Off
Versions: 1 2 3 4 5 6 7 8 9 10 11 12 13 14 15 16 17 18 19 20 21 22 23 24 25 26 27 28 29 30 31 32 33 34 35 36 37 38 39 40 41 42 43 44 45 46 47 48 49 50

000
NZUS93 KARX 231959
HRRWXR

CURRENT HOURLY OBSERVATIONS ACROSS
MUCH OF THE UPPER MISSISSIPPI VALLEY
NATIONAL WEATHER SERVICE LA CROSSE WI
300 PM CDT THU OCT 23 2014


...SOUTHEAST MINNESOTA...


CITY           SKY/WX    TMP DP  RH WIND       PRES   REMARKS
ROCHESTER      CLOUDY    56  51  84 CALM      30.01F
ROCHESTER/MAYO CLOUDY    55  51  87 CALM      30.00F
WINONA         CLOUDY    54  50  87 CALM      30.02F
AUSTIN         SUNNY     61  52  72 CALM      29.99F
ALBERT LEA     SUNNY     68  48  49 W7        29.98F
DODGE CENTER   SUNNY     59  54  82 CALM      29.99F
PRESTON        CLOUDY    51  49  93 CALM      30.01F FOG
OWATONNA       SUNNY     64  52  63 W6        29.98S
FARIBAULT      SUNNY     66  54  63 CALM      29.98S
$$

...ELSEWHERE IN MINNESOTA...


CITY           SKY/WX    TMP DP  RH WIND       PRES   REMARKS
MINNEAPOLIS    SUNNY     66  48  52 SW6       29.96F
INTNL FALLS    SUNNY     67  42  40 SW10G18   29.83F
DULUTH         PTSUNNY   54  48  80 SW9       29.94F
RED WING       CLOUDY    57  52  82 SE5       29.98F
REDWOOD FALLS  SUNNY     71  38  29 VRB7      29.95F
MANKATO        SUNNY     70  43  37 W10       29.97F
WORTHINGTON    SUNNY     68  37  32 W9        29.99F
FAIRMONT       MOSUNNY   72  12  10 W10       29.98F
$$

...SOUTHWEST WISCONSIN...


CITY           SKY/WX    TMP DP  RH WIND       PRES   REMARKS
LA CROSSE      CLOUDY    50  47  89 S7        30.03S
PRAIRIE DU CHI CLOUDY    49  46  90 SE5       30.04F
BOSCOBEL       CLOUDY    50  46  86 S5        30.05S
LONE ROCK      NOT AVBL
PLATTEVILLE    CLOUDY    49  48  95 S6        30.05F
FORT MC COY    CLOUDY    47  46  94 S3        30.04F
VIROQUA        CLOUDY    46  46 100 S6        30.02F
WIS DELLS      RAIN      46  45  93 S3        30.04F
$$

...ELSEWHERE IN WISCONSIN...


CITY           SKY/WX    TMP DP  RH WIND       PRES   REMARKS
MILWAUKEE      CLOUDY    56  44  64 SE14      30.07F
MADISON        LGT RAIN  50  47  89 SW3       30.04F
GREEN BAY      LGT RAIN  52  46  80 SW3       30.06F
EAU CLAIRE     NOT AVBL
BLACK RVR FLS  CLOUDY    49  49 100 SW3       30.02F FOG
MEDFORD        CLOUDY    45  44  97 S5        30.01F FOG
WAUSAU         CLOUDY    46  44  93 S7        30.01F FOG
WIS RAPIDS     CLOUDY    47  46  97 S7        30.04F
MARSHFIELD     CLOUDY    47  46  97 S7        30.02F FOG
RICE LAKE      CLOUDY    51  50  93 S3        30.01S FOG
$$

...NORTHEAST IOWA...


CITY           SKY/WX    TMP DP  RH WIND       PRES   REMARKS
DECORAH        CLOUDY    50  48  93 SW5       30.01F
MASON CITY     SUNNY     66  52  60 VRB5      30.01F
CHARLES CITY   PTSUNNY   55  54  94 CALM      30.03S
OELWEIN        CLOUDY    52  52 100 S8        30.03F FOG
$$

...ELSEWHERE IN IOWA...


CITY           SKY/WX    TMP DP  RH WIND       PRES   REMARKS
DES MOINES     MOSUNNY   70  57  63 SW5       30.01F
IOWA CITY      CLOUDY    58  51  78 CALM      30.04F
FORT DODGE     SUNNY     68  50  52 NW3       30.02S
$$

...NORTHERN ILLINOIS...


CITY           SKY/WX    TMP DP  RH WIND       PRES   REMARKS
CHICAGO-OHARE  CLOUDY    58  41  53 SW12G18   30.11S
CHICAGO-MIDWAY PTSUNNY   61  41  47 SW13      30.12R
MOLINE         PTSUNNY   61  46  57 S9        30.04F
ROCKFORD       CLOUDY    58  42  55 S16       30.09F
PEORIA         CLOUDY    61  44  53 S14       30.10F
$$

NOTE: "FAIR" INDICATES FEW OR NO CLOUDS BELOW 12,000 FEET WITH NO
SIGNIFICANT WEATHER AND/OR OBSTRUCTIONS TO VISIBILITY. WIND
SPEEDS ARE IN MILES-PER-HOUR.



USA.gov is the U.S. government's official web portal to all federal, state and local government web resources and services.